Вернуться в каталог

BREEZE-M DEB

LostMEO
NORAD 41545·DEBRIS·🇷🇺 Russia

Запущен Dec 13, 2015 с Baikonur Cosmodrome

Loading…

Ближайшие Пролёты (ближайшие 24 часа)

TLE

УстаревшееSource: Space-Track

Эпоха: Nov 10, 2017, 20:34 UTC

1 41545U 15075F   17314.85761346 -.00000202 +00000-0 +00000-0 0  9998
2 41545 001.3971 099.3435 0258981 075.8166 286.9384 01.05636813007023

Отслеживайте BREEZE-M DEB в реальном времени с AllMySat

Download on the App Store